Location: Unspecified
(0.0000°N, 0.0000°E)
Time: 13:35:58
(UTC+00:00)

Cosmos 1803 - Visible Passes

Search period start: 19 October 2018 00:00
Search period end: 29 October 2018 00:00
Orbit: 1496 x 1504 km, 82.6° (Epoch: 19 October)

Date Brightness Start Highest point End Pass type
(mag) Time Alt. Az. Time Alt. Az. Time Alt. Az.
19 Oct 5.6 04:02:59 10° NNE 04:11:02 41° E 04:19:05 10° SSE visible
19 Oct 7.5 18:41:21 10° W 18:42:04 10° W 18:42:47 10° W visible
20 Oct 6.7 03:17:56 10° NE 03:23:21 18° E 03:28:45 10° SE visible
20 Oct 4.5 05:11:23 10° NNW 05:19:52 55° W 05:28:25 10° SSW visible
21 Oct 4.6 04:23:26 10° N 04:32:11 75° E 04:40:59 10° S visible
22 Oct 5.8 03:36:45 10° NNE 03:44:31 35° E 03:52:16 10° SSE visible
22 Oct 7.3 18:12:09 10° WSW 18:15:32 13° W 18:18:55 10° WNW visible
23 Oct 6.7 02:52:20 10° NE 02:56:49 15° E 03:01:17 10° ESE visible
23 Oct 4.4 04:44:42 10° NNW 04:53:20 63° W 05:02:01 10° S visible
24 Oct 4.7 03:56:59 10° N 04:05:40 66° E 04:14:22 10° SSE visible
25 Oct 5.9 03:10:34 10° NNE 03:17:59 31° E 03:25:23 10° SE visible
25 Oct 4.9 05:06:52 10° NNW 05:14:30 34° W 05:22:11 10° SSW visible
26 Oct 6.8 02:27:08 10° ENE 02:30:18 12° E 02:33:27 10° ESE visible
26 Oct 4.3 04:18:05 10° N 04:26:48 72° W 04:35:35 10° S visible
27 Oct 4.9 03:30:34 10° N 03:39:08 58° E 03:47:43 10° SSE visible
28 Oct 6.0 02:44:28 10° NNE 02:51:27 27° E 02:58:26 10° SE visible
28 Oct 4.8 04:40:01 10° NNW 04:47:58 39° W 04:55:58 10° SSW visible
